Regional Weather Roundup
Issued by NWS Cleveland, OH

Home | Current Version | Previous Version | Graphics & Text | Print | Product List | Glossary On
Versions: 1 2 3 4 5 6 7 8 9 10 11 12 13 14 15 16 17 18 19 20 21 22 23 24 25 26 27 28 29 30 31 32 33 34 35 36 37 38 39 40 41 42 43 44 45 46 47 48 49 50
000
ASUS41 KCLE 271110
RWRCLE
OHIO REGIONAL WEATHER ROUNDUP
NATIONAL WEATHER SERVICE CLEVELAND, OH
700 AM EDT SAT AUG 27 2016

NOTE: "FAIR" INDICATES FEW OR NO CLOUDS BELOW 12,000 FEET WITH NO
SIGNIFICANT WEATHER AND/OR OBSTRUCTIONS TO VISIBILITY.

OHZ001>008-015>018-024>027-034-035-043-044-271200-
   NORTHWEST OHIO

CITY           SKY/WX    TMP DP  RH WIND       PRES   REMARKS
DEFIANCE       CLOUDY    71  61  70 E5        30.12S
FINDLAY        MOCLDY    70  58  65 E6        30.12S
TOLEDO EXPRESS CLOUDY    67  64  90 E3        30.12S
TOLEDO EXEC    CLOUDY    69  60  73 E5        30.14R
LIMA           CLOUDY    69  63  81 SE8       30.13R
$$

OHZ009>014-019>023-028>033-038-089-271200-
   NORTHEAST OHIO

CITY           SKY/WX    TMP DP  RH WIND       PRES   REMARKS
CLE-HOPKINS    CLOUDY    69  57  65 SE3       30.18S
CLE-LAKEFRONT  PTCLDY    69  60  73 S3        30.16R
CUY CO. ARPT   PTCLDY    70  63  78 SE10      30.18
LORAIN-ELYRIA  CLOUDY    64  58  80 S6        30.17R
ASHTABULA      CLEAR     60  60 100 E5        30.21S
AKRON-CANTON   PTCLDY    68  60  75 E9        30.19R
WOOSTER        MOCLDY    64  60  87 E3        30.19R
MANSFIELD      PTCLDY    67  61  81 SE7       30.18R
YOUNGSTOWN     PTCLDY    63  59  87 E7        30.20R
$$

OHZ042-051>053-060>062-070>072-077>081-271200-
  SOUTHWEST OHIO

CITY           SKY/WX    TMP DP  RH WIND       PRES   REMARKS
CINC-COVINGTON NOT AVBL
CINC-LUNKEN    NOT AVBL
HAMILTON       CLOUDY    69  67  93 CALM      30.10S FOG
DAYTON         MOCLDY    71  68  90 E6        30.13R
WRIGHT-PAT AFB MOCLDY    71  69  94 N3        30.12R
DAYTON GENERAL CLOUDY    74  70  87 E6        30.10S
WILMINGTON     CLOUDY    71  70  96 E5        30.12S
$$

OHZ036-037-039>041-045>050-054>059-063>069-073>076-082>088-271200-
  CENTRAL AND SOUTHEAST OHIO

CITY           SKY/WX    TMP DP  RH WIND       PRES   REMARKS
COLUMBUS       MOCLDY    71  64  78 E3        30.12S
OSU AIRPORT    MOCLDY    69  64  84 CALM      30.14R
BOLTON FIELD   MOCLDY    70  65  84 E3        30.14R
RICKENBACK AFB MOCLDY    70  66  89 CALM      30.13R
NEWARK         CLOUDY    69  65  86 VRB3      30.14R
MARION         MOCLDY    68  60  75 CALM      30.15R
LANCASTER      CLOUDY    68  67  96 CALM      30.14R
ZANESVILLE     CLOUDY    69  66  90 CALM      30.15S
NEW PHILLY     CLOUDY    67  62  84 CALM      30.18R
$$




USA.gov is the U.S. government's official web portal to all federal, state and local government web resources and services.